This is the latest recevied weather packets stored in our database for station/object DH4SBM. If no packets are shown the sender has not sent any weather packets the latest 10 day(s).
| Time | Temp. | Humidity | Pressure | Rain* | Wind** | Luminosity | Snow |
|---|---|---|---|---|---|---|---|
| 1778276076 | 12.78° C | 74% | 1018.2 hPa | 0 mm | - | 0 W/m² | - |
| 1778275476 | 12.78° C | 74% | 1018.3 hPa | 0 mm | - | 0 W/m² | - |
| 1778274876 | 13.33° C | 74% | 1018.3 hPa | 0 mm | - | 0 W/m² | - |
| 1778274276 | 13.33° C | 73% | 1018.1 hPa | 0 mm | - | 0 W/m² | - |
| 1778273676 | 13.33° C | 73% | 1018 hPa | 0 mm | - | 0 W/m² | - |
| 1778273076 | 13.33° C | 72% | 1018 hPa | 0 mm | - | 0 W/m² | - |
| 1778272476 | 13.89° C | 71% | 1018.1 hPa | 0 mm | - | 0 W/m² | - |
| 1778271876 | 13.89° C | 71% | 1018.1 hPa | 0 mm | - | 0 W/m² | - |
| 1778271276 | 13.89° C | 70% | 1018.1 hPa | 0 mm | - | 0 W/m² | - |
| 1778270676 | 14.44° C | 69% | 1018.1 hPa | 0 mm | - | 0 W/m² | - |
| 1778270076 | 14.44° C | 68% | 1018.1 hPa | 0 mm | - | 0 W/m² | - |
| 1778269476 | 14.44° C | 67% | 1017.9 hPa | 0 mm | - | 0 W/m² | - |
| 1778268876 | 15° C | 66% | 1017.6 hPa | 0 mm | - | 0 W/m² | - |
| 1778267573 | 16.11° C | 64% | 1017.5 hPa | 0 mm | - | 0 W/m² | - |
| 1778266973 | 16.11° C | 64% | 1017.3 hPa | 0 mm | - | 16 W/m² | - |
| 1778266373 | 16.11° C | 64% | 1017.2 hPa | 0 mm | - | 16 W/m² | - |
| 1778265773 | 16.11° C | 64% | 1017 hPa | 0 mm | - | 16 W/m² | - |
| 1778265173 | 16.67° C | 63% | 1016.9 hPa | 0 mm | - | 16 W/m² | - |
| 1778264573 | 16.67° C | 63% | 1016.9 hPa | 0 mm | - | 25 W/m² | - |
| 1778263972 | 16.67° C | 62% | 1016.8 hPa | 0 mm | - | 30 W/m² | - |
| 1778263372 | 17.22° C | 61% | 1016.6 hPa | 0 mm | - | 53 W/m² | - |
| 1778262772 | 17.22° C | 60% | 1016.4 hPa | 0 mm | - | 69 W/m² | - |
| 1778262172 | 17.78° C | 62% | 1016.4 hPa | 0 mm | - | 86 W/m² | - |
| 1778261572 | 17.78° C | 61% | 1016.3 hPa | 0 mm | - | 105 W/m² | - |
| 1778260972 | 17.78° C | 60% | 1016.3 hPa | 0 mm | - | 127 W/m² | - |
* Rain latest hour (hover to see other rain measurements)
** Current wind speed in m/s (hover to see current wind gust speed)